User: anonymous   Login
Location: Caltech
(34.1382°N, 118.1253°W)
Time: 02:58:09
(UTC-07:00)
Language:

Cosmos 1697 Rocket - Orbit

View from above orbital plane
View from above orbital plane
View from above satellite
View from above satellite

Ground track
Ground track

The orbit data is extracted from the following two-line orbital elements,

1 16182U 85097B   16182.87432171 -.00000243  00000-0 -98331-4 0  9997
2 16182  71.0030  27.2024 0009849 254.1383 198.3317 14.16199763586484
Epoch (UTC): 30 June 2016 20:59:01
Eccentricity: 0.0009849
inclination: 71.0030°
perigee height: 831 km
apogee height: 845 km
right ascension of ascending node: 27.2024°
argument of perigee: 254.1383°
revolutions per day: 14.16199763
mean anomaly at epoch: 198.3317°
orbit number at epoch: 58648

The dashed part of the orbit path shows where the satellite is in the earth's shadow,  

DLR